This demonstration page uses our WeatherBlox Daily Observations layout. Learn more.

Left ArrowRight Arrow

36.19886, -115.1175

Hourly Observations for December 22, 2015

Temp ( °F °C ) Dew Point ( °F °C ) Humidity (%) Winds ( mph kmh ) Pressure ( in mb ) Visibility ( mi km ) Precip ( " mm )
12:53 am 00:53 Cloudy 44 6.7 32 0 63 63 N 3 6 29.81 1010 10 16 0.00 0.00
1:53 am 01:53 Mostly Cloudy 44 6.7 31 -0.6 60 60 NW 6 9 29.80 1009 10 16 0.00 0.00
2:53 am 02:53 Mostly Cloudy 45 7.2 32 0 61 61 NNW 5 7 29.78 1009 10 16 0.00 0.00
3:53 am 03:53 Cloudy 44 6.7 31 -0.6 60 60 N 8 13 29.75 1008 10 16 0.00 0.00
4:53 am 04:53 Cloudy 45 7.2 32 0 61 61 N 7 11 29.73 1007 10 16 0.00 0.00
5:53 am 05:53 Cloudy 46 7.8 32 0 58 58 NNW 5 7 29.72 1006 10 16 0.00 0.00
6:53 am 06:53 Cloudy 49 9.4 31 -0.6 50 50 ENE 9 15 29.72 1006 10 16 0.00 0.00
7:53 am 07:53 Cloudy 49 9.4 32 0 52 52 NNE 6 9 29.72 1007 10 16 0.00 0.00
8:53 am 08:53 Cloudy 50 10 32 0 50 50 NE 12 19 29.73 1007 10 16 0.00 0.00
9:53 am 09:53 Partly Cloudy 52 11.1 33 0.6 49 49 NE 8 13 29.72 1007 10 16 0.00 0.00
10:53 am 10:53 Sunny 54 12.2 35 1.7 49 49 ESE 7 11 29.69 1005 10 16 0.00 0.00
11:53 am 11:53 Sunny 57 13.9 36 2.2 45 45 VRB 5 7 29.65 1004 10 16 0.00 0.00
12:53 pm 12:53 Sunny 59 15 37 2.8 44 44 undefined N/A 29.61 1003 10 16 0.00 0.00
1:53 pm 13:53 Sunny 60 15.6 37 2.8 42 42 ENE 7 11 29.59 1002 10 16 0.00 0.00
2:53 pm 14:53 Sunny 60 15.6 38 3.3 44 44 ENE 9 15 29.59 1002 10 16 0.00 0.00
3:53 pm 15:53 Sunny 59 15 39 3.9 48 48 E 8 13 29.59 1002 10 16 0.00 0.00
4:53 pm 16:53 Clear 56 13.3 39 3.9 53 53 NE 6 9 29.60 1002 10 16 0.00 0.00
5:53 pm 17:53 Clear 53 11.7 40 4.4 61 61 NE 9 15 29.62 1003 10 16 0.00 0.00
6:53 pm 18:53 Clear 52 11.1 41 5 66 66 NE 8 13 29.63 1003 10 16 0.00 0.00
7:53 pm 19:53 Clear 50 10 39 3.9 66 66 NW 7 11 29.64 1004 10 16 0.00 0.00
8:53 pm 20:53 Clear 48 8.9 39 3.9 71 71 NNW 7 11 29.64 1004 10 16 0.00 0.00
9:53 pm 21:53 Clear 48 8.9 38 3.3 68 68 NNW 9 15 29.67 1005 10 16 0.00 0.00
10:53 pm 22:53 Clear 48 8.9 37 2.8 66 66 N 8 13 29.67 1005 10 16 0.00 0.00
11:53 pm 23:53 Clear 48 8.9 38 3.3 68 68 NW 6 9 29.65 1004 10 16 0.00 0.00

Powered by AerisWeather